| time (UTC) | temp F | wind direction | speed MPH | gust MPH | rain 1hr in | rain 24hr in | rain mn in | humidity % | barometer mb |
| 20260904195826 | 89 | 162 | 0.0 | 0.0 | 0.00 | 0.17 | 0.17 | 59 | 1015.4 |
| 20260904195533 | 89 | 162 | 0.0 | 0.0 | 0.00 | 0.17 | 0.17 | 62 | 1012.3 |
| 20260904195324 | 89 | 162 | 0.0 | 0.0 | 0.00 | 0.17 | 0.17 | 66 | 1015.4 |
| 20260904195011 | 89 | 91 | 0.0 | 0.0 | 0.00 | 0.17 | 0.17 | 70 | 1012.4 |
| 20260904194842 | 89 | 349 | 0.0 | 0.0 | 0.00 | 0.17 | 0.17 | 72 | 1015.3 |
| 20260904194545 | 88 | 299 | 0.0 | 0.0 | 0.00 | 0.17 | 0.17 | 72 | 1012.5 |
| 20260904194319 | 88 | 359 | 0.0 | 0.0 | 0.00 | 0.17 | 0.17 | 72 | 1015.5 |
| 20260904194035 | 87 | 289 | 0.0 | 0.0 | 0.00 | 0.17 | 0.17 | 73 | 1012.7 |
| 20260904193837 | 88 | 272 | 0.0 | 0.0 | 0.00 | 0.17 | 0.17 | 73 | 1015.9 |
| 20260904193559 | 87 | 250 | 0.0 | 0.0 | 0.00 | 0.17 | 0.17 | 72 | 1012.8 |
| 20260904193314 | 87 | 270 | 0.0 | 0.0 | 0.00 | 0.17 | 0.17 | 74 | 1015.9 |
| 20260904193050 | 87 | 333 | 0.0 | 0.0 | 0.00 | 0.17 | 0.17 | 74 | 1012.9 |
| 20260904192832 | 87 | 210 | 0.0 | 0.0 | 0.00 | 0.17 | 0.17 | 75 | 1016.0 |
| 20260904192539 | 86 | 249 | 0.0 | 0.0 | 0.00 | 0.17 | 0.17 | 75 | 1012.9 |
| 20260904192350 | 86 | 239 | 0.0 | 0.0 | 0.00 | 0.17 | 0.17 | 75 | 1016.0 |
| 20260904192101 | 86 | 233 | 0.0 | 0.0 | 0.00 | 0.17 | 0.17 | 75 | 1013.0 |
| 20260904191826 | 86 | 252 | 0.0 | 0.0 | 0.00 | 0.17 | 0.17 | 75 | 1016.0 |
| 20260904191551 | 85 | 259 | 0.0 | 0.0 | 0.00 | 0.17 | 0.17 | 76 | 1013.0 |
| 20260904191324 | 85 | 293 | 0.0 | 0.0 | 0.00 | 0.17 | 0.17 | 76 | 1016.0 |
| 20260904191041 | 85 | 280 | 0.0 | 0.0 | 0.00 | 0.17 | 0.17 | 76 | 1013.1 |
| 20260904190822 | 85 | 267 | 0.0 | 0.0 | 0.00 | 0.17 | 0.17 | 76 | 1016.1 |
| 20260904190531 | 85 | 289 | 0.0 | 0.0 | 0.00 | 0.17 | 0.17 | 76 | 1013.1 |
| 20260904190320 | 85 | 237 | 0.0 | 0.0 | 0.00 | 0.17 | 0.17 | 77 | 1016.1 |
| 20260904190022 | 84 | 251 | 0.0 | 0.0 | 0.00 | 0.17 | 0.17 | 77 | 1013.2 |
| 20260904185817 | 84 | 259 | 0.0 | 0.0 | 0.00 | 0.17 | 0.17 | 76 | 1016.2 |
| 20260904185546 | 84 | 224 | 0.0 | 0.0 | 0.00 | 0.17 | 0.17 | 76 | 1013.1 |
| 20260904185315 | 84 | 235 | 0.0 | 0.0 | 0.00 | 0.17 | 0.17 | 76 | 1016.1 |
| 20260904185037 | 84 | 273 | 0.0 | 0.0 | 0.00 | 0.17 | 0.17 | 77 | 1013.1 |
| 20260904184833 | 84 | 260 | 0.0 | 0.0 | 0.00 | 0.17 | 0.17 | 76 | 1016.3 |
| 20260904184536 | 84 | 271 | 0.0 | 0.0 | 0.00 | 0.17 | 0.17 | 77 | 1013.3 |
| 20260904184351 | 84 | 276 | 0.0 | 0.0 | 0.00 | 0.17 | 0.17 | 78 | 1016.4 |
| 20260904184053 | 84 | 250 | 0.0 | 0.0 | 0.00 | 0.17 | 0.17 | 78 | 1013.3 |
| 20260904183829 | 84 | 272 | 0.0 | 0.0 | 0.00 | 0.17 | 0.17 | 78 | 1016.3 |
| 20260904183547 | 83 | 284 | 0.0 | 0.0 | 0.00 | 0.17 | 0.17 | 78 | 1013.3 |
| 20260904183327 | 84 | 264 | 0.0 | 0.0 | 0.00 | 0.17 | 0.17 | 79 | 1016.5 |
| 20260904183041 | 83 | 250 | 0.0 | 0.0 | 0.00 | 0.17 | 0.17 | 79 | 1013.4 |
| 20260904182825 | 83 | 270 | 0.0 | 0.0 | 0.00 | 0.17 | 0.17 | 78 | 1016.6 |
| 20260904182541 | 83 | 264 | 0.0 | 0.0 | 0.00 | 0.17 | 0.17 | 79 | 1013.6 |
| 20260904182323 | 83 | 240 | 0.0 | 0.0 | 0.00 | 0.17 | 0.17 | 79 | 1016.6 |
| 20260904182021 | 83 | 214 | 0.0 | 0.0 | 0.00 | 0.17 | 0.17 | 80 | 1013.7 |
| 20260904181821 | 83 | 258 | 0.0 | 0.0 | 0.00 | 0.17 | 0.17 | 80 | 1016.8 |
| 20260904181505 | 82 | 224 | 0.0 | 0.0 | 0.00 | 0.17 | 0.17 | 81 | 1014.0 |
| 20260904181339 | 83 | 265 | 0.0 | 0.0 | 0.00 | 0.17 | 0.17 | 81 | 1016.9 |
| 20260904181039 | 82 | 256 | 0.0 | 0.0 | 0.00 | 0.17 | 0.17 | 81 | 1013.9 |
| 20260904180836 | 82 | 269 | 0.0 | 0.0 | 0.00 | 0.17 | 0.17 | 81 | 1016.9 |
| 20260904180601 | 82 | 259 | 0.0 | 0.0 | 0.00 | 0.17 | 0.17 | 82 | 1014.0 |
| 20260904180333 | 82 | 252 | 0.0 | 0.0 | 0.00 | 0.17 | 0.17 | 83 | 1017.1 |
| 20260904180052 | 81 | 237 | 0.0 | 0.0 | 0.00 | 0.17 | 0.17 | 82 | 1014.1 |
| 20260904175831 | 82 | 257 | 0.0 | 0.0 | 0.00 | 0.17 | 0.17 | 83 | 1017.1 |
| 20260904175553 | 81 | 241 | 0.0 | 0.0 | 0.00 | 0.17 | 0.17 | 83 | 1014.2 |
| 20260904175346 | 82 | 263 | 0.0 | 0.0 | 0.00 | 0.17 | 0.17 | 83 | 1017.2 |
| 20260904175025 | 81 | 224 | 0.0 | 0.0 | 0.00 | 0.17 | 0.17 | 84 | 1014.2 |
| 20260904174842 | 81 | 229 | 0.0 | 0.0 | 0.00 | 0.17 | 0.17 | 85 | 1017.2 |
| 20260904174553 | 81 | 241 | 0.0 | 0.0 | 0.00 | 0.17 | 0.17 | 86 | 1014.2 |
| 20260904174318 | 81 | 264 | 0.0 | 0.0 | 0.00 | 0.17 | 0.17 | 85 | 1017.2 |
| 20260904174044 | 80 | 218 | 0.0 | 0.0 | 0.00 | 0.17 | 0.17 | 85 | 1014.2 |
| 20260904173816 | 81 | 227 | 0.0 | 0.0 | 0.00 | 0.17 | 0.17 | 86 | 1017.3 |
| 20260904173538 | 80 | 247 | 0.0 | 0.0 | 0.00 | 0.17 | 0.17 | 86 | 1014.2 |
| 20260904173352 | 80 | 229 | 0.0 | 0.0 | 0.00 | 0.17 | 0.17 | 86 | 1017.3 |
| 20260904173006 | 80 | 240 | 0.0 | 4.0 | 0.00 | 0.17 | 0.17 | 87 | 1014.3 |
| 20260904172847 | 80 | 241 | 0.0 | 4.0 | 0.00 | 0.17 | 0.17 | 87 | 1017.4 |
| 20260904172539 | 79 | 260 | 0.0 | 4.0 | 0.00 | 0.17 | 0.17 | 88 | 1014.4 |
| 20260904172323 | 79 | 280 | 2.0 | 5.0 | 0.00 | 0.17 | 0.17 | 87 | 1017.4 |
| 20260904172033 | 78 | 359 | 2.0 | 5.0 | 0.00 | 0.17 | 0.17 | 88 | 1014.5 |
| 20260904171821 | 79 | 270 | 3.0 | 7.0 | 0.00 | 0.17 | 0.17 | 87 | 1017.5 |
| 20260904171526 | 78 | 268 | 4.0 | 7.0 | 0.00 | 0.17 | 0.17 | 87 | 1014.5 |
| 20260904171321 | 79 | 268 | 2.0 | 7.0 | 0.00 | 0.17 | 0.17 | 88 | 1017.6 |
| 20260904171021 | 78 | 273 | 4.0 | 7.0 | 0.00 | 0.17 | 0.17 | 88 | 1014.6 |
| 20260904170819 | 79 | 278 | 5.0 | 7.0 | 0.00 | 0.17 | 0.17 | 88 | 1017.6 |
| 20260904170505 | 79 | 274 | 3.0 | 7.0 | 0.00 | 0.17 | 0.17 | 89 | 1014.7 |
| 20260904170317 | 79 | 245 | 4.0 | 7.0 | 0.00 | 0.17 | 0.17 | 89 | 1017.7 |
| 20260904170057 | 78 | 263 | 2.0 | 5.0 | 0.00 | 0.17 | 0.17 | 89 | 1014.6 |
| 20260904165814 | 79 | 245 | 2.0 | 5.0 | 0.00 | 0.17 | 0.17 | 89 | 1017.6 |
| 20260904165551 | 78 | 237 | 2.0 | 5.0 | 0.01 | 0.17 | 0.17 | 89 | 1014.7 |
| 20260904165314 | 78 | 242 | 3.0 | 5.0 | 0.01 | 0.17 | 0.17 | 89 | 1017.6 |
| 20260904165041 | 77 | 242 | 3.0 | 5.0 | 0.01 | 0.17 | 0.17 | 89 | 1014.7 |
| 20260904164832 | 78 | 229 | 1.0 | 4.0 | 0.03 | 0.17 | 0.17 | 89 | 1017.6 |
| 20260904164534 | 77 | 229 | 2.0 | 4.0 | 0.06 | 0.17 | 0.17 | 89 | 1014.7 |
| 20260904164350 | 78 | 178 | 2.0 | 3.0 | 0.08 | 0.17 | 0.17 | 89 | 1017.6 |
| 20260904164102 | 77 | 178 | 1.0 | 5.0 | 0.09 | 0.17 | 0.17 | 89 | 1014.7 |
| 20260904163829 | 77 | 178 | 1.0 | 6.0 | 0.09 | 0.17 | 0.17 | 89 | 1017.6 |
| 20260904163551 | 77 | 178 | 1.0 | 6.0 | 0.09 | 0.17 | 0.17 | 89 | 1014.6 |
| 20260904163326 | 77 | 178 | 3.0 | 6.0 | 0.09 | 0.17 | 0.17 | 89 | 1017.6 |
| 20260904163045 | 77 | 163 | 3.0 | 9.0 | 0.10 | 0.17 | 0.17 | 89 | 1014.5 |
| 20260904162825 | 77 | 215 | 3.0 | 9.0 | 0.10 | 0.17 | 0.17 | 89 | 1017.6 |
| 20260904162540 | 77 | 215 | 3.0 | 9.0 | 0.11 | 0.17 | 0.17 | 89 | 1014.6 |
| 20260904162325 | 77 | 224 | 2.0 | 9.0 | 0.11 | 0.17 | 0.17 | 90 | 1017.6 |
| 20260904162033 | 76 | 180 | 3.0 | 10.0 | 0.11 | 0.17 | 0.17 | 90 | 1014.6 |
| 20260904161822 | 77 | 231 | 5.0 | 10.0 | 0.11 | 0.17 | 0.17 | 89 | 1017.6 |
| 20260904161527 | 76 | 243 | 6.0 | 10.0 | 0.11 | 0.17 | 0.17 | 90 | 1014.6 |
| 20260904161321 | 77 | 192 | 5.0 | 10.0 | 0.11 | 0.17 | 0.17 | 90 | 1017.7 |
| 20260904161025 | 76 | 210 | 6.0 | 10.0 | 0.11 | 0.17 | 0.17 | 90 | 1014.6 |
| 20260904160820 | 77 | 186 | 5.0 | 14.0 | 0.11 | 0.17 | 0.17 | 90 | 1017.6 |
| 20260904160505 | 76 | 207 | 6.0 | 14.0 | 0.11 | 0.17 | 0.17 | 90 | 1014.4 |
| 20260904160339 | 77 | 201 | 7.0 | 14.0 | 0.11 | 0.17 | 0.17 | 90 | 1017.5 |
| 20260904160054 | 76 | 170 | 9.0 | 12.0 | 0.11 | 0.17 | 0.17 | 90 | 1014.5 |
| 20260904155831 | 77 | 216 | 8.0 | 13.0 | 0.11 | 0.17 | 0.17 | 90 | 1017.4 |
| 20260904155544 | 76 | 220 | 9.0 | 13.0 | 0.10 | 0.16 | 0.16 | 90 | 1014.5 |
| 20260904155330 | 77 | 210 | 7.0 | 15.0 | 0.10 | 0.16 | 0.16 | 90 | 1017.4 |
| 20260904155037 | 76 | 227 | 7.0 | 15.0 | 0.10 | 0.16 | 0.16 | 90 | 1014.3 |
| 20260904154829 | 77 | 227 | 7.0 | 15.0 | 0.07 | 0.13 | 0.13 | 90 | 1017.4 |
| 20260904154529 | 76 | 212 | 5.0 | 10.0 | 0.04 | 0.10 | 0.10 | 90 | 1014.5 |
| 20260904154326 | 77 | 191 | 6.0 | 10.0 | 0.03 | 0.09 | 0.09 | 90 | 1017.5 |
| 20260904154015 | 76 | 226 | 5.0 | 10.0 | 0.02 | 0.08 | 0.08 | 90 | 1014.5 |
| 20260904153825 | 77 | 205 | 6.0 | 10.0 | 0.02 | 0.08 | 0.08 | 90 | 1017.5 |
| 20260904153508 | 76 | 216 | 6.0 | 10.0 | 0.02 | 0.08 | 0.08 | 90 | 1014.4 |
| 20260904153344 | 77 | 222 | 7.0 | 10.0 | 0.02 | 0.08 | 0.08 | 90 | 1017.4 |
| 20260904153039 | 76 | 220 | 6.0 | 8.0 | 0.01 | 0.07 | 0.07 | 90 | 1014.4 |
| 20260904152821 | 77 | 187 | 6.0 | 8.0 | 0.00 | 0.06 | 0.06 | 90 | 1017.6 |
| 20260904152534 | 76 | 189 | 2.0 | 7.0 | 0.00 | 0.06 | 0.06 | 90 | 1014.6 |
| 20260904152320 | 77 | 189 | 5.0 | 8.0 | 0.00 | 0.06 | 0.06 | 90 | 1017.5 |
| 20260904152025 | 76 | 177 | 3.0 | 8.0 | 0.00 | 0.06 | 0.06 | 90 | 1014.5 |
| 20260904151818 | 77 | 149 | 5.0 | 8.0 | 0.00 | 0.06 | 0.06 | 90 | 1017.4 |
| 20260904151517 | 76 | 145 | 5.0 | 8.0 | 0.00 | 0.06 | 0.06 | 90 | 1014.4 |
| 20260904151339 | 77 | 172 | 4.0 | 10.0 | 0.00 | 0.06 | 0.06 | 90 | 1017.2 |
| 20260904151039 | 76 | 202 | 4.0 | 10.0 | 0.00 | 0.06 | 0.06 | 90 | 1014.2 |
| 20260904150853 | 77 | 171 | 5.0 | 10.0 | 0.00 | 0.06 | 0.06 | 90 | 1017.3 |
| 20260904150503 | 76 | 206 | 5.0 | 10.0 | 0.00 | 0.06 | 0.06 | 90 | 1014.2 |
| 20260904150331 | 77 | 213 | 5.0 | 8.0 | 0.00 | 0.06 | 0.06 | 90 | 1017.4 |
| 20260904150055 | 76 | 207 | 3.0 | 9.0 | 0.00 | 0.06 | 0.06 | 90 | 1014.3 |
| 20260904145850 | 77 | 211 | 4.0 | 9.0 | 0.00 | 0.06 | 0.06 | 90 | 1017.4 |
| 20260904145529 | 76 | 193 | 5.0 | 9.0 | 0.00 | 0.06 | 0.06 | 90 | 1014.4 |
| 20260904145343 | 77 | 203 | 5.0 | 12.0 | 0.00 | 0.06 | 0.06 | 90 | 1017.5 |
| 20260904145055 | 76 | 199 | 5.0 | 12.0 | 0.00 | 0.06 | 0.06 | 90 | 1014.3 |
| 20260904144821 | 77 | 187 | 5.0 | 12.0 | 0.00 | 0.06 | 0.06 | 90 | 1017.3 |
| 20260904144551 | 76 | 200 | 7.0 | 12.0 | 0.01 | 0.06 | 0.06 | 90 | 1014.2 |
| 20260904144339 | 77 | 179 | 5.0 | 12.0 | 0.01 | 0.06 | 0.06 | 90 | 1017.2 |
| 20260904144024 | 76 | 172 | 7.0 | 12.0 | 0.01 | 0.06 | 0.06 | 91 | 1014.0 |
| 20260904143816 | 77 | 184 | 7.0 | 12.0 | 0.01 | 0.06 | 0.06 | 90 | 1017.1 |
| 20260904143517 | 76 | 195 | 5.0 | 10.0 | 0.01 | 0.06 | 0.06 | 91 | 1014.1 |
| 20260904143335 | 77 | 194 | 6.0 | 11.0 | 0.02 | 0.06 | 0.06 | 91 | 1017.0 |
| 20260904143041 | 76 | 187 | 5.0 | 11.0 | 0.03 | 0.06 | 0.06 | 91 | 1013.9 |
| 20260904142848 | 77 | 222 | 6.0 | 11.0 | 0.03 | 0.06 | 0.06 | 91 | 1017.0 |
| 20260904142517 | 76 | 195 | 6.0 | 10.0 | 0.03 | 0.06 | 0.06 | 91 | 1014.1 |
| 20260904142356 | 77 | 195 | 7.0 | 10.0 | 0.03 | 0.06 | 0.06 | 91 | 1017.1 |
| 20260904142032 | 76 | 195 | 7.0 | 11.0 | 0.03 | 0.06 | 0.06 | 91 | 1014.1 |
| 20260904141844 | 77 | 202 | 7.0 | 11.0 | 0.03 | 0.06 | 0.06 | 91 | 1017.0 |
| 20260904141601 | 76 | 158 | 6.0 | 11.0 | 0.03 | 0.06 | 0.06 | 91 | 1014.0 |
| 20260904141321 | 77 | 170 | 6.0 | 10.0 | 0.03 | 0.06 | 0.06 | 91 | 1016.9 |
| 20260904141046 | 76 | 206 | 6.0 | 10.0 | 0.03 | 0.06 | 0.06 | 91 | 1013.9 |
| 20260904140840 | 76 | 137 | 7.0 | 10.0 | 0.03 | 0.06 | 0.06 | 91 | 1016.9 |
| 20260904140536 | 76 | 190 | 7.0 | 11.0 | 0.03 | 0.06 | 0.06 | 91 | 1014.0 |
| 20260904140331 | 76 | 160 | 7.0 | 11.0 | 0.03 | 0.06 | 0.06 | 91 | 1017.0 |
| 20260904140016 | 76 | 171 | 7.0 | 11.0 | 0.03 | 0.06 | 0.06 | 91 | 1014.2 |
| 20260904135829 | 76 | 164 | 6.0 | 9.0 | 0.03 | 0.06 | 0.06 | 91 | 1017.4 |
| 20260904135507 | 76 | 176 | 4.0 | 7.0 | 0.03 | 0.06 | 0.06 | 90 | 1014.3 |
| 20260904135347 | 76 | 182 | 4.0 | 7.0 | 0.03 | 0.06 | 0.06 | 90 | 1017.3 |
| 20260904135039 | 76 | 176 | 4.0 | 7.0 | 0.03 | 0.06 | 0.06 | 90 | 1014.3 |
| 20260904134823 | 76 | 157 | 3.0 | 6.0 | 0.03 | 0.06 | 0.06 | 90 | 1017.4 |
| 20260904134500 | 76 | 189 | 2.0 | 4.0 | 0.02 | 0.05 | 0.05 | 90 | 1014.4 |
| 20260904134321 | 76 | 142 | 2.0 | 3.0 | 0.02 | 0.05 | 0.05 | 90 | 1017.5 |
| 20260904134052 | 76 | 141 | 1.0 | 2.0 | 0.02 | 0.05 | 0.05 | 90 | 1014.4 |
| 20260904133819 | 76 | 141 | 0.0 | 2.0 | 0.02 | 0.05 | 0.05 | 90 | 1017.4 |
| 20260904133542 | 76 | 141 | 0.0 | 2.0 | 0.02 | 0.05 | 0.05 | 90 | 1014.6 |
| 20260904133423 | 76 | 141 | 0.0 | 3.0 | 0.01 | 0.04 | 0.04 | 90 | 1017.6 |
| 20260904133044 | 76 | 141 | 0.0 | 5.0 | 0.00 | 0.03 | 0.03 | 90 | 1014.7 |
| 20260904132847 | 76 | 141 | 0.0 | 5.0 | 0.00 | 0.03 | 0.03 | 90 | 1017.6 |
| 20260904132503 | 76 | 142 | 3.0 | 5.0 | 0.01 | 0.03 | 0.03 | 90 | 1014.4 |
| 20260904132324 | 76 | 141 | 3.0 | 5.0 | 0.01 | 0.03 | 0.03 | 90 | 1017.5 |
| 20260904132057 | 76 | 131 | 3.0 | 5.0 | 0.01 | 0.03 | 0.03 | 90 | 1014.4 |
| 20260904131822 | 76 | 143 | 2.0 | 4.0 | 0.01 | 0.03 | 0.03 | 89 | 1017.4 |
| 20260904131549 | 76 | 82 | 1.0 | 6.0 | 0.01 | 0.03 | 0.03 | 89 | 1014.5 |
| 20260904131340 | 76 | 82 | 2.0 | 6.0 | 0.01 | 0.03 | 0.03 | 89 | 1017.6 |
| 20260904131038 | 76 | 44 | 1.0 | 6.0 | 0.01 | 0.03 | 0.03 | 90 | 1014.7 |
| 20260904130830 | 76 | 39 | 3.0 | 6.0 | 0.01 | 0.03 | 0.03 | 89 | 1017.6 |
| 20260904130531 | 76 | 29 | 3.0 | 5.0 | 0.02 | 0.03 | 0.03 | 89 | 1014.5 |
| 20260904130328 | 76 | 31 | 3.0 | 5.0 | 0.02 | 0.03 | 0.03 | 89 | 1017.4 |
| 20260904130013 | 76 | 91 | 2.0 | 8.0 | 0.02 | 0.03 | 0.03 | 89 | 1014.0 |
| 20260904125846 | 76 | 143 | 2.0 | 8.0 | 0.02 | 0.03 | 0.03 | 89 | 1016.9 |
| 20260904125550 | 76 | 143 | 2.0 | 8.0 | 0.03 | 0.03 | 0.03 | 89 | 1013.6 |
| 20260904125342 | 76 | 164 | 5.0 | 8.0 | 0.03 | 0.03 | 0.03 | 89 | 1016.6 |
| 20260904125007 | 76 | 193 | 3.0 | 8.0 | 0.03 | 0.03 | 0.03 | 89 | 1013.3 |
| 20260904124818 | 76 | 181 | 3.0 | 9.0 | 0.03 | 0.03 | 0.03 | 89 | 1016.3 |
| 20260904124613 | 76 | 187 | 4.0 | 9.0 | 0.03 | 0.03 | 0.03 | 89 | 1013.2 |
| 20260904124315 | 76 | 167 | 5.0 | 9.0 | 0.03 | 0.03 | 0.03 | 89 | 1016.1 |
| 20260904124040 | 76 | 207 | 5.0 | 9.0 | 0.03 | 0.03 | 0.03 | 89 | 1012.9 |
| 20260904123822 | 76 | 175 | 6.0 | 10.0 | 0.03 | 0.03 | 0.03 | 89 | 1016.0 |
| 20260904123502 | 76 | 177 | 4.0 | 10.0 | 0.03 | 0.03 | 0.03 | 88 | 1012.9 |
| 20260904123320 | 76 | 193 | 6.0 | 10.0 | 0.03 | 0.03 | 0.03 | 88 | 1015.9 |
| 20260904123103 | 76 | 179 | 5.0 | 8.0 | 0.03 | 0.03 | 0.03 | 88 | 1012.9 |
| 20260904122818 | 76 | 169 | 5.0 | 8.0 | 0.03 | 0.03 | 0.03 | 89 | 1015.9 |
| 20260904122549 | 76 | 162 | 5.0 | 10.0 | 0.02 | 0.02 | 0.03 | 89 | 1012.9 |
| 20260904122316 | 76 | 146 | 6.0 | 10.0 | 0.02 | 0.02 | 0.02 | 88 | 1015.9 |
| 20260904122045 | 76 | 147 | 6.0 | 10.0 | 0.02 | 0.02 | 0.02 | 88 | 1012.9 |
| 20260904121814 | 76 | 162 | 7.0 | 10.0 | 0.02 | 0.02 | 0.02 | 88 | 1015.8 |
| 20260904121536 | 76 | 164 | 6.0 | 10.0 | 0.02 | 0.02 | 0.02 | 88 | 1012.8 |
| 20260904121332 | 77 | 167 | 6.0 | 9.0 | 0.02 | 0.02 | 0.02 | 88 | 1015.8 |
| 20260904121017 | 76 | 190 | 5.0 | 8.0 | 0.02 | 0.02 | 0.02 | 87 | 1012.8 |
| 20260904120850 | 77 | 143 | 5.0 | 9.0 | 0.02 | 0.02 | 0.02 | 87 | 1015.8 |
| 20260904120548 | 76 | 191 | 5.0 | 9.0 | 0.01 | 0.01 | 0.01 | 87 | 1012.8 |
| 20260904120328 | 77 | 146 | 6.0 | 9.0 | 0.01 | 0.01 | 0.01 | 87 | 1015.8 |
| 20260904120039 | 77 | 141 | 4.0 | 10.0 | 0.01 | 0.01 | 0.01 | 86 | 1012.7 |
| 20260904115825 | 77 | 139 | 5.0 | 10.0 | 0.01 | 0.01 | 0.01 | 86 | 1015.7 |
| 20260904115530 | 77 | 153 | 5.0 | 10.0 | 0.00 | 0.00 | 0.00 | 85 | 1012.7 |
| 20260904115342 | 78 | 145 | 6.0 | 10.0 | 0.00 | 0.00 | 0.00 | 85 | 1015.6 |
| 20260904115005 | 77 | 123 | 5.0 | 10.0 | 0.00 | 0.00 | 0.00 | 85 | 1012.6 |
| 20260904114842 | 78 | 120 | 6.0 | 10.0 | 0.00 | 0.00 | 0.00 | 85 | 1015.8 |
| 20260904114536 | 77 | 137 | 4.0 | 10.0 | 0.00 | 0.00 | 0.00 | 84 | 1012.8 |
| 20260904114317 | 78 | 120 | 5.0 | 10.0 | 0.00 | 0.00 | 0.00 | 84 | 1015.9 |
| 20260904114034 | 77 | 93 | 4.0 | 10.0 | 0.00 | 0.00 | 0.00 | 84 | 1012.9 |
| 20260904113836 | 78 | 122 | 4.0 | 10.0 | 0.00 | 0.00 | 0.00 | 84 | 1015.9 |
| 20260904113502 | 77 | 136 | 4.0 | 10.0 | 0.00 | 0.00 | 0.00 | 84 | 1012.9 |
| 20260904113333 | 78 | 53 | 5.0 | 10.0 | 0.00 | 0.00 | 0.00 | 84 | 1015.9 |
| 20260904113057 | 77 | 125 | 2.0 | 8.0 | 0.00 | 0.00 | 0.00 | 84 | 1012.8 |
| 20260904112851 | 78 | 37 | 3.0 | 8.0 | 0.00 | 0.00 | 0.00 | 84 | 1015.9 |
| 20260904112527 | 77 | 80 | 3.0 | 8.0 | 0.00 | 0.00 | 0.00 | 84 | 1012.8 |
| 20260904112344 | 77 | 80 | 3.0 | 6.0 | 0.00 | 0.00 | 0.00 | 84 | 1015.8 |
| 20260904112052 | 77 | 93 | 2.0 | 6.0 | 0.00 | 0.00 | 0.00 | 84 | 1012.8 |
| 20260904111820 | 78 | 80 | 3.0 | 5.0 | 0.00 | 0.00 | 0.00 | 84 | 1015.8 |
| 20260904111546 | 77 | 50 | 2.0 | 5.0 | 0.00 | 0.00 | 0.00 | 84 | 1012.7 |
| 20260904111340 | 78 | 60 | 2.0 | 4.0 | 0.00 | 0.00 | 0.00 | 84 | 1015.6 |
| 20260904111032 | 77 | 115 | 1.0 | 6.0 | 0.00 | 0.00 | 0.00 | 84 | 1012.5 |
| 20260904110832 | 78 | 115 | 0.0 | 7.0 | 0.00 | 0.00 | 0.00 | 83 | 1015.4 |
| 20260904110518 | 77 | 115 | 1.0 | 7.0 | 0.00 | 0.00 | 0.00 | 84 | 1012.4 |
| 20260904110350 | 78 | 115 | 2.0 | 7.0 | 0.00 | 0.00 | 0.00 | 83 | 1015.4 |
| 20260904110050 | 77 | 123 | 2.0 | 6.0 | 0.00 | 0.00 | 0.00 | 83 | 1012.2 |
| 20260904105829 | 78 | 137 | 4.0 | 6.0 | 0.00 | 0.00 | 0.00 | 83 | 1015.1 |
| 20260904105542 | 77 | 153 | 4.0 | 9.0 | 0.00 | 0.00 | 0.00 | 83 | 1012.1 |
| 20260904105328 | 78 | 161 | 5.0 | 9.0 | 0.00 | 0.00 | 0.00 | 83 | 1015.0 |
| 20260904105039 | 77 | 181 | 6.0 | 9.0 | 0.00 | 0.00 | 0.00 | 83 | 1012.1 |
| 20260904104824 | 78 | 172 | 4.0 | 8.0 | 0.00 | 0.00 | 0.00 | 83 | 1015.1 |
| 20260904104528 | 77 | 164 | 4.0 | 6.0 | 0.00 | 0.00 | 0.00 | 83 | 1012.0 |
| 20260904104341 | 78 | 164 | 3.0 | 6.0 | 0.00 | 0.00 | 0.00 | 83 | 1015.0 |
| 20260904104052 | 77 | 164 | 4.0 | 6.0 | 0.00 | 0.00 | 0.00 | 83 | 1012.1 |
| 20260904103817 | 78 | 164 | 4.0 | 6.0 | 0.00 | 0.00 | 0.00 | 83 | 1014.9 |
| 20260904103547 | 77 | 177 | 3.0 | 6.0 | 0.00 | 0.00 | 0.00 | 83 | 1012.0 |
| 20260904103315 | 78 | 154 | 5.0 | 7.0 | 0.00 | 0.00 | 0.00 | 83 | 1014.9 |
| 20260904103038 | 77 | 181 | 4.0 | 7.0 | 0.00 | 0.00 | 0.00 | 83 | 1011.7 |
| 20260904102851 | 78 | 177 | 4.0 | 7.0 | 0.00 | 0.00 | 0.00 | 83 | 1014.8 |
| 20260904102504 | 77 | 168 | 5.0 | 6.0 | 0.00 | 0.00 | 0.00 | 83 | 1011.8 |
| 20260904102329 | 78 | 169 | 4.0 | 8.0 | 0.00 | 0.00 | 0.00 | 83 | 1014.8 |
| 20260904102056 | 77 | 194 | 3.0 | 7.0 | 0.00 | 0.00 | 0.00 | 83 | 1011.9 |
| 20260904101825 | 78 | 154 | 5.0 | 8.0 | 0.00 | 0.00 | 0.00 | 83 | 1014.8 |
| 20260904101549 | 77 | 137 | 4.0 | 8.0 | 0.00 | 0.00 | 0.00 | 83 | 1011.9 |
| 20260904101322 | 78 | 139 | 3.0 | 8.0 | 0.00 | 0.00 | 0.00 | 83 | 1014.9 |
| 20260904101039 | 77 | 149 | 4.0 | 9.0 | 0.00 | 0.00 | 0.00 | 83 | 1011.9 |
| 20260904100818 | 78 | 143 | 5.0 | 9.0 | 0.00 | 0.00 | 0.00 | 83 | 1014.9 |
| 20260904100530 | 77 | 147 | 4.0 | 9.0 | 0.00 | 0.00 | 0.00 | 83 | 1011.9 |
| 20260904100335 | 78 | 149 | 7.0 | 9.0 | 0.00 | 0.00 | 0.00 | 83 | 1014.8 |
| 20260904100104 | 77 | 146 | 4.0 | 7.0 | 0.00 | 0.00 | 0.00 | 82 | 1011.8 |
| 20260904095851 | 78 | 159 | 4.0 | 7.0 | 0.00 | 0.00 | 0.00 | 82 | 1014.8 |
| 20260904095527 | 77 | 176 | 4.0 | 7.0 | 0.00 | 0.00 | 0.00 | 82 | 1011.8 |
| 20260904095326 | 78 | 175 | 6.0 | 8.0 | 0.00 | 0.00 | 0.00 | 82 | 1014.8 |
| 20260904095020 | 77 | 176 | 4.0 | 8.0 | 0.00 | 0.00 | 0.00 | 82 | 1011.9 |
| 20260904094821 | 78 | 167 | 5.0 | 7.0 | 0.00 | 0.00 | 0.00 | 82 | 1014.8 |
| 20260904094502 | 77 | 169 | 4.0 | 8.0 | 0.00 | 0.00 | 0.00 | 82 | 1011.7 |
| 20260904094318 | 78 | 156 | 5.0 | 10.0 | 0.00 | 0.00 | 0.00 | 82 | 1014.7 |
| 20260904094057 | 77 | 149 | 5.0 | 10.0 | 0.00 | 0.00 | 0.00 | 82 | 1011.7 |
| 20260904093814 | 78 | 173 | 6.0 | 10.0 | 0.00 | 0.00 | 0.00 | 82 | 1014.7 |
| 20260904093546 | 77 | 172 | 6.0 | 10.0 | 0.00 | 0.00 | 0.00 | 82 | 1011.8 |
| 20260904093332 | 78 | 192 | 5.0 | 10.0 | 0.00 | 0.00 | 0.00 | 82 | 1014.8 |
| 20260904093037 | 77 | 193 | 5.0 | 10.0 | 0.00 | 0.00 | 0.00 | 82 | 1011.8 |
| 20260904092832 | 78 | 179 | 5.0 | 7.0 | 0.00 | 0.00 | 0.00 | 82 | 1014.9 |
| 20260904092532 | 77 | 185 | 4.0 | 7.0 | 0.00 | 0.00 | 0.00 | 82 | 1011.9 |
| 20260904092349 | 78 | 160 | 5.0 | 10.0 | 0.00 | 0.00 | 0.00 | 82 | 1014.8 |
| 20260904092056 | 77 | 178 | 5.0 | 10.0 | 0.00 | 0.00 | 0.00 | 82 | 1011.9 |
| 20260904091824 | 78 | 170 | 5.0 | 10.0 | 0.00 | 0.00 | 0.00 | 82 | 1014.9 |
| 20260904091549 | 77 | 174 | 6.0 | 10.0 | 0.00 | 0.00 | 0.00 | 82 | 1011.9 |
| 20260904091324 | 78 | 165 | 5.0 | 10.0 | 0.00 | 0.00 | 0.00 | 82 | 1015.0 |
| 20260904091044 | 77 | 147 | 4.0 | 10.0 | 0.00 | 0.00 | 0.00 | 82 | 1011.9 |
| 20260904090822 | 78 | 206 | 6.0 | 10.0 | 0.00 | 0.00 | 0.00 | 82 | 1015.0 |
| 20260904090504 | 77 | 181 | 6.0 | 11.0 | 0.00 | 0.00 | 0.00 | 82 | 1012.0 |
| 20260904090341 | 78 | 188 | 5.0 | 9.0 | 0.00 | 0.00 | 0.00 | 82 | 1015.0 |
| 20260904090045 | 77 | 156 | 6.0 | 10.0 | 0.00 | 0.00 | 0.00 | 82 | 1012.0 |
| 20260904085900 | 78 | 171 | 6.0 | 9.0 | 0.00 | 0.00 | 0.00 | 82 | 1014.9 |
| 20260904085513 | 77 | 166 | 6.0 | 9.0 | 0.00 | 0.00 | 0.00 | 82 | 1012.0 |
| 20260904085332 | 78 | 169 | 6.0 | 9.0 | 0.00 | 0.00 | 0.00 | 81 | 1015.0 |
| 20260904085103 | 77 | 168 | 5.0 | 9.0 | 0.00 | 0.00 | 0.00 | 81 | 1012.0 |
| 20260904085002 | 78 | 169 | 4.0 | 9.0 | 0.00 | 0.00 | 0.00 | 81 | 1012.0 |
| 20260904084829 | 78 | 163 | 5.0 | 9.0 | 0.00 | 0.00 | 0.00 | 81 | 1015.0 |
| 20260904084537 | 78 | 130 | 5.0 | 9.0 | 0.00 | 0.00 | 0.00 | 81 | 1012.1 |
| 20260904084326 | 78 | 176 | 6.0 | 10.0 | 0.00 | 0.00 | 0.00 | 81 | 1015.1 |
| 20260904084027 | 78 | 212 | 5.0 | 12.0 | 0.00 | 0.00 | 0.00 | 81 | 1012.0 |
| 20260904083824 | 78 | 158 | 6.0 | 12.0 | 0.00 | 0.00 | 0.00 | 81 | 1015.1 |
| 20260904083512 | 78 | 159 | 7.0 | 12.0 | 0.00 | 0.00 | 0.00 | 81 | 1012.0 |
| 20260904083342 | 78 | 155 | 9.0 | 12.0 | 0.00 | 0.00 | 0.00 | 81 | 1015.1 |
| 20260904083111 | 78 | 179 | 8.0 | 11.0 | 0.00 | 0.00 | 0.00 | 81 | 1012.0 |
| 20260904082819 | 78 | 151 | 7.0 | 11.0 | 0.00 | 0.00 | 0.00 | 81 | 1015.1 |
| 20260904082537 | 78 | 180 | 6.0 | 11.0 | 0.00 | 0.00 | 0.00 | 80 | 1012.0 |
| 20260904082316 | 78 | 191 | 6.0 | 11.0 | 0.00 | 0.00 | 0.00 | 80 | 1015.1 |
| 20260904082059 | 78 | 158 | 6.0 | 11.0 | 0.00 | 0.00 | 0.00 | 80 | 1012.0 |
| 20260904081833 | 78 | 203 | 5.0 | 11.0 | 0.00 | 0.00 | 0.00 | 80 | 1015.0 |
| 20260904081529 | 78 | 177 | 5.0 | 11.0 | 0.00 | 0.00 | 0.00 | 80 | 1011.9 |
| 20260904081351 | 78 | 199 | 8.0 | 11.0 | 0.00 | 0.00 | 0.00 | 80 | 1015.0 |
| 20260904081052 | 78 | 162 | 6.0 | 11.0 | 0.00 | 0.00 | 0.00 | 80 | 1012.0 |
| 20260904080829 | 78 | 220 | 6.0 | 11.0 | 0.00 | 0.00 | 0.00 | 80 | 1015.0 |
| 20260904080542 | 78 | 169 | 7.0 | 11.0 | 0.00 | 0.00 | 0.00 | 80 | 1012.1 |
| 20260904080346 | 78 | 172 | 6.0 | 12.0 | 0.00 | 0.00 | 0.00 | 80 | 1015.1 |
| 20260904080004 | 78 | 171 | 6.0 | 12.0 | 0.00 | 0.00 | 0.00 | 80 | 1012.0 |
| 20260904075823 | 79 | 193 | 7.0 | 12.0 | 0.00 | 0.00 | 0.00 | 80 | 1015.0 |
| 20260904075559 | 78 | 166 | 7.0 | 12.0 | 0.00 | 0.00 | 0.00 | 80 | 1012.0 |
| 20260904075321 | 79 | 191 | 6.0 | 10.0 | 0.00 | 0.00 | 0.00 | 79 | 1015.0 |
| 20260904075030 | 78 | 192 | 6.0 | 10.0 | 0.00 | 0.00 | 0.00 | 79 | 1012.0 |
| 20260904074839 | 79 | 170 | 6.0 | 10.0 | 0.00 | 0.00 | 0.00 | 79 | 1015.0 |
| 20260904074554 | 78 | 181 | 5.0 | 11.0 | 0.00 | 0.00 | 0.00 | 79 | 1011.9 |
| 20260904074315 | 79 | 185 | 5.0 | 11.0 | 0.00 | 0.00 | 0.00 | 79 | 1015.0 |
| 20260904074044 | 78 | 155 | 7.0 | 17.0 | 0.00 | 0.00 | 0.00 | 79 | 1012.0 |
| 20260904073813 | 79 | 195 | 7.0 | 17.0 | 0.00 | 0.00 | 0.00 | 79 | 1015.0 |
| 20260904073536 | 78 | 166 | 8.0 | 17.0 | 0.00 | 0.00 | 0.00 | 79 | 1012.1 |
| 20260904073352 | 79 | 183 | 9.0 | 17.0 | 0.00 | 0.00 | 0.00 | 79 | 1015.0 |
| 20260904073101 | 78 | 147 | 10.0 | 14.0 | 0.00 | 0.00 | 0.00 | 79 | 1012.0 |
| 20260904072829 | 79 | 152 | 7.0 | 14.0 | 0.00 | 0.00 | 0.00 | 79 | 1015.0 |
| 20260904072549 | 78 | 170 | 8.0 | 14.0 | 0.00 | 0.00 | 0.00 | 79 | 1012.0 |
| 20260904072341 | 79 | 172 | 9.0 | 14.0 | 0.00 | 0.00 | 0.00 | 79 | 1015.1 |
| 20260904072030 | 78 | 164 | 8.0 | 12.0 | 0.00 | 0.00 | 0.00 | 79 | 1012.0 |
| 20260904071839 | 79 | 172 | 9.0 | 12.0 | 0.00 | 0.00 | 0.00 | 79 | 1015.1 |
| 20260904071622 | 79 | 159 | 7.0 | 11.0 | 0.00 | 0.00 | 0.00 | 79 | 1012.2 |
| 20260904071331 | 79 | 182 | 7.0 | 11.0 | 0.00 | 0.00 | 0.00 | 79 | 1015.3 |
| 20260904071052 | 79 | 150 | 6.0 | 12.0 | 0.00 | 0.00 | 0.00 | 79 | 1012.2 |
| 20260904070829 | 79 | 136 | 7.0 | 12.0 | 0.00 | 0.00 | 0.00 | 78 | 1015.3 |
| 20260904070542 | 79 | 139 | 8.0 | 12.0 | 0.00 | 0.00 | 0.00 | 78 | 1012.2 |
| 20260904070325 | 79 | 195 | 7.0 | 12.0 | 0.00 | 0.00 | 0.00 | 78 | 1015.3 |
| 20260904070105 | 79 | 152 | 7.0 | 11.0 | 0.00 | 0.00 | 0.00 | 78 | 1012.2 |
| 20260904065823 | 79 | 167 | 8.0 | 11.0 | 0.00 | 0.00 | 0.00 | 78 | 1015.3 |
| 20260904065525 | 79 | 172 | 6.0 | 12.0 | 0.00 | 0.00 | 0.00 | 78 | 1012.3 |
| 20260904065322 | 79 | 153 | 7.0 | 12.0 | 0.00 | 0.00 | 0.00 | 78 | 1015.3 |
| 20260904065014 | 79 | 162 | 6.0 | 16.0 | 0.00 | 0.00 | 0.00 | 78 | 1012.2 |
| 20260904064820 | 79 | 136 | 6.0 | 16.0 | 0.00 | 0.00 | 0.00 | 78 | 1015.4 |
| 20260904064502 | 79 | 172 | 10.0 | 16.0 | 0.00 | 0.00 | 0.00 | 78 | 1012.4 |
| 20260904064339 | 79 | 145 | 8.0 | 16.0 | 0.00 | 0.00 | 0.00 | 78 | 1015.4 |
| 20260904064053 | 79 | 160 | 7.0 | 12.0 | 0.00 | 0.00 | 0.00 | 78 | 1012.4 |
| 20260904063830 | 79 | 161 | 7.0 | 12.0 | 0.00 | 0.00 | 0.00 | 78 | 1015.4 |
| 20260904063542 | 79 | 164 | 7.0 | 14.0 | 0.00 | 0.00 | 0.00 | 78 | 1012.5 |
| 20260904063329 | 79 | 170 | 6.0 | 14.0 | 0.00 | 0.00 | 0.00 | 78 | 1015.5 |
| 20260904063036 | 79 | 191 | 8.0 | 14.0 | 0.00 | 0.00 | 0.00 | 78 | 1012.5 |
| 20260904062826 | 79 | 131 | 6.0 | 11.0 | 0.00 | 0.00 | 0.00 | 78 | 1015.5 |
| 20260904062514 | 79 | 164 | 6.0 | 11.0 | 0.00 | 0.00 | 0.00 | 78 | 1012.5 |
| 20260904062344 | 79 | 160 | 6.0 | 11.0 | 0.00 | 0.00 | 0.00 | 78 | 1015.5 |
| 20260904062046 | 79 | 150 | 7.0 | 11.0 | 0.00 | 0.00 | 0.00 | 78 | 1012.4 |
| 20260904061822 | 79 | 160 | 9.0 | 11.0 | 0.00 | 0.00 | 0.00 | 78 | 1015.4 |
| 20260904061538 | 79 | 154 | 7.0 | 11.0 | 0.00 | 0.00 | 0.00 | 78 | 1012.3 |
| 20260904061319 | 79 | 167 | 5.0 | 10.0 | 0.00 | 0.00 | 0.00 | 77 | 1015.3 |
| 20260904061030 | 79 | 173 | 5.0 | 10.0 | 0.00 | 0.00 | 0.00 | 77 | 1012.2 |
| 20260904060818 | 79 | 148 | 7.0 | 10.0 | 0.00 | 0.00 | 0.00 | 77 | 1015.2 |
| 20260904060522 | 79 | 158 | 6.0 | 10.0 | 0.00 | 0.00 | 0.00 | 77 | 1012.2 |
| 20260904060336 | 79 | 163 | 7.0 | 10.0 | 0.00 | 0.00 | 0.00 | 77 | 1015.3 |
| 20260904060050 | 79 | 153 | 6.0 | 11.0 | 0.00 | 0.00 | 0.00 | 77 | 1012.2 |
| 20260904055831 | 79 | 144 | 7.0 | 12.0 | 0.00 | 0.00 | 0.00 | 77 | 1015.1 |
| 20260904055516 | 79 | 157 | 7.0 | 12.0 | 0.00 | 0.00 | 0.00 | 77 | 1012.1 |
| 20260904055329 | 79 | 155 | 5.0 | 12.0 | 0.00 | 0.00 | 0.00 | 77 | 1015.1 |
| 20260904055006 | 79 | 141 | 7.0 | 12.0 | 0.00 | 0.00 | 0.00 | 77 | 1012.1 |
| 20260904054825 | 79 | 139 | 7.0 | 12.0 | 0.00 | 0.00 | 0.00 | 77 | 1015.1 |
| 20260904054504 | 79 | 134 | 6.0 | 12.0 | 0.00 | 0.00 | 0.00 | 77 | 1012.0 |
| 20260904054344 | 80 | 145 | 8.0 | 12.0 | 0.00 | 0.00 | 0.00 | 76 | 1015.0 |
| 20260904054042 | 79 | 156 | 8.0 | 12.0 | 0.00 | 0.00 | 0.00 | 76 | 1012.1 |
| 20260904053822 | 80 | 133 | 7.0 | 12.0 | 0.00 | 0.00 | 0.00 | 76 | 1015.1 |
| 20260904053539 | 79 | 159 | 6.0 | 10.0 | 0.00 | 0.00 | 0.00 | 76 | 1012.0 |
| 20260904053319 | 80 | 143 | 5.0 | 10.0 | 0.00 | 0.00 | 0.00 | 76 | 1015.1 |
| 20260904053049 | 79 | 145 | 7.0 | 10.0 | 0.00 | 0.00 | 0.00 | 76 | 1012.0 |
| 20260904052817 | 80 | 152 | 7.0 | 10.0 | 0.00 | 0.00 | 0.00 | 76 | 1015.1 |
| 20260904052528 | 79 | 154 | 5.0 | 10.0 | 0.00 | 0.00 | 0.00 | 76 | 1012.1 |
| 20260904052316 | 80 | 141 | 5.0 | 10.0 | 0.00 | 0.00 | 0.00 | 76 | 1015.1 |
| 20260904052022 | 79 | 151 | 5.0 | 10.0 | 0.00 | 0.00 | 0.00 | 76 | 1012.0 |
| 20260904051832 | 80 | 160 | 6.0 | 10.0 | 0.00 | 0.00 | 0.00 | 76 | 1015.0 |
| 20260904051520 | 79 | 156 | 5.0 | 13.0 | 0.00 | 0.00 | 0.00 | 76 | 1012.0 |
| 20260904051329 | 80 | 152 | 7.0 | 13.0 | 0.00 | 0.00 | 0.00 | 75 | 1015.0 |
| 20260904051059 | 79 | 157 | 8.0 | 13.0 | 0.00 | 0.00 | 0.00 | 75 | 1012.0 |
| 20260904050847 | 80 | 156 | 8.0 | 13.0 | 0.00 | 0.00 | 0.00 | 75 | 1015.0 |
| 20260904050529 | 79 | 152 | 6.0 | 10.0 | 0.00 | 0.00 | 0.00 | 75 | 1011.8 |
| 20260904050321 | 80 | 153 | 6.0 | 10.0 | 0.00 | 0.00 | 0.00 | 75 | 1014.9 |
| 20260904050116 | 79 | 145 | 7.0 | 11.0 | 0.00 | 0.00 | 0.00 | 75 | 1011.8 |
| 20260904045829 | 80 | 162 | 7.0 | 11.0 | 0.00 | 0.00 | 0.00 | 75 | 1014.9 |
| 20260904045545 | 79 | 156 | 6.0 | 11.0 | 0.00 | 0.00 | 0.00 | 75 | 1011.8 |
| 20260904045346 | 80 | 150 | 6.0 | 10.0 | 0.00 | 0.00 | 0.00 | 75 | 1015.0 |
| 20260904045006 | 80 | 144 | 6.0 | 9.0 | 0.00 | 0.00 | 0.00 | 75 | 1011.8 |
| 20260904044823 | 80 | 147 | 6.0 | 9.0 | 0.00 | 0.00 | 0.00 | 74 | 1014.9 |
| 20260904044558 | 79 | 150 | 5.0 | 8.0 | 0.00 | 0.00 | 0.00 | 74 | 1011.9 |
| 20260904044321 | 80 | 138 | 6.0 | 10.0 | 0.00 | 0.00 | 0.00 | 74 | 1014.9 |
| 20260904044048 | 80 | 146 | 3.0 | 10.0 | 0.00 | 0.00 | 0.00 | 74 | 1011.8 |
| 20260904043820 | 80 | 174 | 5.0 | 10.0 | 0.00 | 0.00 | 0.00 | 74 | 1014.9 |
| 20260904043538 | 80 | 135 | 6.0 | 9.0 | 0.00 | 0.00 | 0.00 | 74 | 1011.8 |
| 20260904043317 | 80 | 141 | 7.0 | 9.0 | 0.00 | 0.00 | 0.00 | 74 | 1015.0 |
| 20260904043035 | 80 | 145 | 5.0 | 12.0 | 0.00 | 0.00 | 0.00 | 74 | 1011.8 |
| 20260904042815 | 80 | 132 | 4.0 | 12.0 | 0.00 | 0.00 | 0.00 | 74 | 1014.9 |
| 20260904042512 | 80 | 161 | 7.0 | 12.0 | 0.00 | 0.00 | 0.00 | 74 | 1011.8 |
| 20260904042333 | 81 | 144 | 7.0 | 12.0 | 0.00 | 0.00 | 0.00 | 74 | 1014.9 |
| 20260904042102 | 80 | 156 | 7.0 | 11.0 | 0.00 | 0.00 | 0.00 | 74 | 1011.9 |
| 20260904041831 | 81 | 165 | 5.0 | 11.0 | 0.00 | 0.00 | 0.00 | 73 | 1014.9 |
| 20260904041553 | 80 | 119 | 3.0 | 7.0 | 0.00 | 0.00 | 0.00 | 73 | 1011.9 |
| 20260904041330 | 81 | 119 | 3.0 | 11.0 | 0.00 | 0.00 | 0.00 | 73 | 1014.8 |
| 20260904041046 | 80 | 130 | 3.0 | 11.0 | 0.00 | 0.00 | 0.00 | 73 | 1011.7 |
| 20260904040827 | 81 | 151 | 5.0 | 11.0 | 0.00 | 0.00 | 0.00 | 73 | 1014.8 |
| 20260904040532 | 80 | 141 | 8.0 | 11.0 | 0.00 | 0.00 | 0.00 | 73 | 1011.7 |
| 20260904040325 | 81 | 159 | 5.0 | 10.0 | 0.00 | 0.00 | 0.00 | 73 | 1014.9 |
| 20260904040022 | 80 | 103 | 6.0 | 11.0 | 0.00 | 0.00 | 0.00 | 73 | 1011.8 |
| 20260904035823 | 81 | 129 | 5.0 | 11.0 | 0.00 | 0.00 | 0.00 | 73 | 1014.9 |
| 20260904035504 | 81 | 170 | 6.0 | 11.0 | 0.00 | 0.00 | 0.00 | 73 | 1011.8 |
| 20260904035320 | 81 | 149 | 9.0 | 11.0 | 0.00 | 0.00 | 0.00 | 73 | 1014.8 |
| 20260904035037 | 81 | 133 | 6.0 | 10.0 | 0.00 | 0.00 | 0.00 | 72 | 1011.7 |
| 20260904034818 | 81 | 139 | 7.0 | 10.0 | 0.00 | 0.00 | 0.00 | 72 | 1015.0 |
| 20260904034529 | 81 | 160 | 6.0 | 10.0 | 0.00 | 0.00 | 0.00 | 72 | 1011.8 |
| 20260904034316 | 81 | 127 | 6.0 | 10.0 | 0.00 | 0.00 | 0.00 | 72 | 1014.8 |
| 20260904034012 | 81 | 160 | 6.0 | 12.0 | 0.00 | 0.00 | 0.00 | 72 | 1011.6 |
| 20260904033850 | 81 | 156 | 7.0 | 14.0 | 0.00 | 0.00 | 0.00 | 72 | 1014.7 |
| 20260904033544 | 81 | 133 | 5.0 | 14.0 | 0.00 | 0.00 | 0.00 | 72 | 1011.6 |
| 20260904033327 | 82 | 152 | 7.0 | 15.0 | 0.00 | 0.00 | 0.00 | 72 | 1014.7 |
| 20260904033035 | 81 | 120 | 8.0 | 15.0 | 0.00 | 0.00 | 0.00 | 72 | 1011.5 |
| 20260904032825 | 82 | 149 | 7.0 | 15.0 | 0.00 | 0.00 | 0.00 | 72 | 1014.6 |
| 20260904032526 | 81 | 139 | 8.0 | 15.0 | 0.00 | 0.00 | 0.00 | 72 | 1011.6 |
| 20260904032323 | 82 | 131 | 8.0 | 10.0 | 0.00 | 0.00 | 0.00 | 72 | 1014.6 |
| 20260904032007 | 81 | 151 | 5.0 | 9.0 | 0.00 | 0.00 | 0.00 | 72 | 1011.6 |
| 20260904031821 | 82 | 150 | 6.0 | 9.0 | 0.00 | 0.00 | 0.00 | 72 | 1014.8 |
| 20260904031608 | 81 | 123 | 4.0 | 8.0 | 0.00 | 0.00 | 0.00 | 72 | 1011.6 |
| 20260904031318 | 82 | 149 | 4.0 | 8.0 | 0.00 | 0.00 | 0.00 | 71 | 1014.8 |
| 20260904031028 | 82 | 139 | 3.0 | 9.0 | 0.00 | 0.00 | 0.00 | 71 | 1011.6 |
| 20260904030816 | 82 | 121 | 4.0 | 12.0 | 0.00 | 0.00 | 0.00 | 71 | 1014.7 |
| 20260904030520 | 82 | 146 | 5.0 | 12.0 | 0.00 | 0.00 | 0.00 | 71 | 1011.7 |
| 20260904030315 | 82 | 143 | 6.0 | 12.0 | 0.00 | 0.00 | 0.00 | 71 | 1014.7 |
| 20260904030005 | 82 | 143 | 8.0 | 12.0 | 0.00 | 0.00 | 0.00 | 71 | 1011.6 |
| 20260904025852 | 82 | 141 | 9.0 | 12.0 | 0.00 | 0.00 | 0.00 | 71 | 1014.7 |
| 20260904025536 | 82 | 162 | 6.0 | 13.0 | 0.00 | 0.00 | 0.00 | 71 | 1011.4 |
| 20260904025329 | 82 | 141 | 8.0 | 13.0 | 0.00 | 0.00 | 0.00 | 71 | 1014.5 |
| 20260904025016 | 82 | 122 | 9.0 | 13.0 | 0.00 | 0.00 | 0.00 | 71 | 1011.3 |
| 20260904024828 | 83 | 122 | 7.0 | 13.0 | 0.00 | 0.00 | 0.00 | 71 | 1014.5 |
| 20260904024509 | 82 | 153 | 6.0 | 10.0 | 0.00 | 0.00 | 0.00 | 71 | 1011.2 |
| 20260904024326 | 83 | 120 | 6.0 | 10.0 | 0.00 | 0.00 | 0.00 | 71 | 1014.4 |
| 20260904024004 | 82 | 127 | 5.0 | 11.0 | 0.00 | 0.00 | 0.00 | 71 | 1011.2 |
| 20260904023824 | 83 | 137 | 7.0 | 11.0 | 0.00 | 0.00 | 0.00 | 71 | 1014.2 |
| 20260904023602 | 82 | 143 | 3.0 | 13.0 | 0.00 | 0.00 | 0.00 | 70 | 1011.1 |
| 20260904023323 | 83 | 118 | 5.0 | 13.0 | 0.00 | 0.00 | 0.00 | 70 | 1014.2 |
| 20260904023100 | 83 | 112 | 7.0 | 13.0 | 0.00 | 0.00 | 0.00 | 70 | 1011.1 |
| 20260904022821 | 83 | 139 | 7.0 | 13.0 | 0.00 | 0.00 | 0.00 | 70 | 1014.2 |
| 20260904022558 | 83 | 111 | 5.0 | 13.0 | 0.00 | 0.00 | 0.00 | 70 | 1011.0 |
| 20260904022320 | 83 | 142 | 4.0 | 13.0 | 0.00 | 0.00 | 0.00 | 70 | 1014.0 |
| 20260904022049 | 83 | 143 | 5.0 | 13.0 | 0.00 | 0.00 | 0.00 | 70 | 1010.9 |
| 20260904021838 | 83 | 108 | 6.0 | 12.0 | 0.00 | 0.00 | 0.00 | 70 | 1014.0 |
| 20260904021539 | 83 | 164 | 6.0 | 17.0 | 0.00 | 0.00 | 0.00 | 69 | 1010.8 |
| 20260904021332 | 84 | 148 | 5.0 | 17.0 | 0.00 | 0.00 | 0.00 | 69 | 1014.0 |
| 20260904021034 | 83 | 118 | 7.0 | 17.0 | 0.00 | 0.00 | 0.00 | 69 | 1010.8 |
| 20260904020830 | 84 | 77 | 10.0 | 17.0 | 0.00 | 0.00 | 0.00 | 69 | 1014.0 |
| 20260904020531 | 83 | 143 | 7.0 | 14.0 | 0.00 | 0.00 | 0.00 | 69 | 1010.8 |
| 20260904020329 | 84 | 138 | 6.0 | 14.0 | 0.00 | 0.00 | 0.00 | 69 | 1014.0 |
| 20260904020012 | 84 | 130 | 8.0 | 16.0 | 0.00 | 0.00 | 0.00 | 69 | 1010.8 |
| 20260904015828 | 84 | 135 | 9.0 | 16.0 | 0.00 | 0.00 | 0.00 | 69 | 1013.9 |
| 20260904015501 | 84 | 145 | 8.0 | 16.0 | 0.00 | 0.00 | 0.00 | 68 | 1010.8 |
| 20260904015347 | 84 | 127 | 9.0 | 16.0 | 0.00 | 0.00 | 0.00 | 68 | 1013.8 |
| 20260904015034 | 84 | 146 | 6.0 | 11.0 | 0.00 | 0.00 | 0.00 | 68 | 1010.7 |
| 20260904014826 | 85 | 89 | 5.0 | 11.0 | 0.00 | 0.00 | 0.00 | 68 | 1013.8 |
| 20260904014527 | 84 | 133 | 7.0 | 14.0 | 0.00 | 0.00 | 0.00 | 68 | 1010.7 |
| 20260904014324 | 85 | 157 | 8.0 | 14.0 | 0.00 | 0.00 | 0.00 | 68 | 1013.7 |
| 20260904014014 | 84 | 135 | 8.0 | 16.0 | 0.00 | 0.00 | 0.00 | 68 | 1010.6 |
| 20260904013823 | 85 | 124 | 8.0 | 16.0 | 0.00 | 0.00 | 0.00 | 68 | 1013.8 |
| 20260904013505 | 84 | 141 | 9.0 | 17.0 | 0.00 | 0.00 | 0.00 | 68 | 1010.5 |
| 20260904013341 | 85 | 158 | 9.0 | 17.0 | 0.00 | 0.00 | 0.00 | 68 | 1013.6 |
| 20260904013044 | 85 | 135 | 7.0 | 17.0 | 0.00 | 0.00 | 0.00 | 68 | 1010.4 |
| 20260904012839 | 85 | 149 | 9.0 | 17.0 | 0.00 | 0.00 | 0.00 | 68 | 1013.5 |
| 20260904012526 | 85 | 116 | 10.0 | 18.0 | 0.00 | 0.00 | 0.00 | 68 | 1010.4 |
| 20260904012331 | 85 | 147 | 9.0 | 19.0 | 0.00 | 0.00 | 0.00 | 68 | 1013.6 |
| 20260904012014 | 85 | 103 | 9.0 | 19.0 | 0.00 | 0.00 | 0.00 | 68 | 1010.4 |
| 20260904011830 | 86 | 164 | 8.0 | 19.0 | 0.00 | 0.00 | 0.00 | 67 | 1013.5 |
| 20260904011506 | 85 | 151 | 11.0 | 18.0 | 0.00 | 0.00 | 0.00 | 67 | 1010.2 |
| 20260904011330 | 86 | 164 | 10.0 | 18.0 | 0.00 | 0.00 | 0.00 | 67 | 1013.4 |
| 20260904011101 | 86 | 120 | 10.0 | 22.0 | 0.00 | 0.00 | 0.00 | 67 | 1010.1 |
| 20260904010829 | 86 | 131 | 9.0 | 22.0 | 0.00 | 0.00 | 0.00 | 67 | 1013.2 |
| 20260904010552 | 86 | 127 | 12.0 | 22.0 | 0.00 | 0.00 | 0.00 | 67 | 1010.1 |
| 20260904010328 | 87 | 110 | 11.0 | 17.0 | 0.00 | 0.00 | 0.00 | 66 | 1013.2 |
| 20260904010046 | 86 | 122 | 0.0 | 0.0 | 0.00 | 0.00 | 0.00 | 66 | 1010.1 |
| 20260904005829 | 87 | 133 | 0.0 | 0.0 | 0.00 | 0.00 | 0.00 | 66 | 1013.3 |
| 20260904005537 | 87 | 125 | 0.0 | 0.0 | 0.00 | 0.00 | 0.00 | 65 | 1010.1 |
| 20260904005346 | 87 | 147 | 0.0 | 0.0 | 0.00 | 0.00 | 0.00 | 65 | 1013.3 |
| 20260904005004 | 87 | 145 | 0.0 | 0.0 | 0.00 | 0.00 | 0.00 | 65 | 1010.1 |
| 20260904004824 | 88 | 141 | 0.0 | 0.0 | 0.00 | 0.00 | 0.00 | 66 | 1013.1 |
| 20260904004558 | 87 | 151 | 0.0 | 0.0 | 0.00 | 0.00 | 0.00 | 66 | 1009.9 |
| 20260904004323 | 88 | 143 | 0.0 | 0.0 | 0.00 | 0.00 | 0.00 | 66 | 1013.1 |
| 20260904004050 | 88 | 149 | 0.0 | 0.0 | 0.00 | 0.00 | 0.00 | 66 | 1010.0 |
| 20260904003822 | 89 | 107 | 0.0 | 0.0 | 0.00 | 0.00 | 0.00 | 66 | 1013.1 |
| 20260904003541 | 88 | 93 | 0.0 | 0.0 | 0.00 | 0.00 | 0.00 | 65 | 1009.9 |
| 20260904003320 | 89 | 131 | 0.0 | 0.0 | 0.00 | 0.00 | 0.00 | 65 | 1013.1 |
| 20260904003036 | 89 | 154 | 0.0 | 0.0 | 0.00 | 0.00 | 0.00 | 64 | 1009.9 |
| 20260904002819 | 89 | 127 | 0.0 | 0.0 | 0.00 | 0.00 | 0.00 | 64 | 1013.1 |
| 20260904002528 | 89 | 141 | 0.0 | 0.0 | 0.00 | 0.00 | 0.00 | 63 | 1009.8 |
| 20260904002318 | 89 | 140 | 0.0 | 0.0 | 0.00 | 0.00 | 0.00 | 63 | 1012.9 |
| 20260904002022 | 89 | 123 | 0.0 | 0.0 | 0.00 | 0.00 | 0.00 | 62 | 1009.6 |
| 20260904001816 | 90 | 155 | 0.0 | 0.0 | 0.00 | 0.00 | 0.00 | 62 | 1012.8 |
| 20260904001514 | 89 | 122 | 0.0 | 0.0 | 0.00 | 0.00 | 0.00 | 62 | 1009.7 |
| 20260904001314 | 90 | 148 | 0.0 | 0.0 | 0.00 | 0.00 | 0.00 | 61 | 1012.9 |
| 20260904001058 | 90 | 161 | 0.0 | 0.0 | 0.00 | 0.00 | 0.00 | 61 | 1009.7 |
| 20260904000833 | 90 | 125 | 0.0 | 0.0 | 0.00 | 0.00 | 0.00 | 60 | 1012.9 |
| 20260904000550 | 90 | 133 | 0.0 | 0.0 | 0.00 | 0.00 | 0.00 | 60 | 1009.7 |
| 20260904000352 | 90 | 130 | 0.0 | 0.0 | 0.00 | 0.00 | 0.00 | 60 | 1012.9 |
| 20260904000015 | 90 | 142 | 0.0 | 0.0 | 0.00 | 0.05 | 0.00 | 60 | 1009.7 |
| 20260903235829 | 91 | 99 | 0.0 | 0.0 | 0.00 | 0.05 | 0.00 | 59 | 1012.8 |
| 20260903235509 | 91 | 130 | 0.0 | 0.0 | 0.00 | 0.05 | 0.00 | 58 | 1009.5 |
| 20260903235327 | 91 | 128 | 0.0 | 0.0 | 0.00 | 0.05 | 0.00 | 58 | 1012.7 |
| 20260903235100 | 91 | 125 | 0.0 | 0.0 | 0.00 | 0.05 | 0.00 | 58 | 1009.5 |
| 20260903234825 | 92 | 138 | 0.0 | 0.0 | 0.00 | 0.05 | 0.00 | 57 | 1012.6 |
| 20260903234530 | 92 | 129 | 0.0 | 0.0 | 0.00 | 0.05 | 0.00 | 56 | 1009.4 |
| 20260903234323 | 92 | 131 | 0.0 | 0.0 | 0.00 | 0.05 | 0.00 | 56 | 1012.5 |
| 20260903234022 | 92 | 138 | 0.0 | 0.0 | 0.00 | 0.05 | 0.00 | 55 | 1009.3 |
| 20260903233822 | 93 | 166 | 0.0 | 0.0 | 0.00 | 0.05 | 0.00 | 55 | 1012.5 |
| 20260903233520 | 93 | 149 | 0.0 | 0.0 | 0.00 | 0.05 | 0.00 | 55 | 1009.2 |
| 20260903233320 | 93 | 139 | 0.0 | 0.0 | 0.00 | 0.05 | 0.00 | 54 | 1012.5 |
| 20260903233017 | 93 | 137 | 0.0 | 0.0 | 0.00 | 0.05 | 0.00 | 54 | 1009.1 |
| 20260903232818 | 94 | 122 | 0.0 | 0.0 | 0.00 | 0.05 | 0.00 | 53 | 1012.3 |
| 20260903232515 | 93 | 105 | 0.0 | 0.0 | 0.00 | 0.05 | 0.00 | 53 | 1009.1 |
| 20260903232316 | 94 | 154 | 0.0 | 0.0 | 0.00 | 0.05 | 0.00 | 53 | 1012.4 |
| 20260903232102 | 93 | 154 | 0.0 | 0.0 | 0.00 | 0.05 | 0.00 | 53 | 1009.2 |
| 20260903231829 | 94 | 102 | 0.0 | 0.0 | 0.00 | 0.05 | 0.00 | 53 | 1012.4 |
| 20260903231536 | 93 | 141 | 0.0 | 0.0 | 0.00 | 0.05 | 0.00 | 52 | 1009.2 |
| 20260903231327 | 94 | 94 | 0.0 | 0.0 | 0.00 | 0.05 | 0.00 | 52 | 1012.3 |
| 20260903231015 | 93 | 148 | 0.0 | 0.0 | 0.00 | 0.05 | 0.00 | 52 | 1009.1 |
| 20260903230825 | 94 | 115 | 0.0 | 0.0 | 0.00 | 0.05 | 0.00 | 52 | 1012.2 |
| 20260903230508 | 93 | 131 | 0.0 | 0.0 | 0.00 | 0.05 | 0.00 | 51 | 1009.0 |
| 20260903230323 | 94 | 143 | 0.0 | 0.0 | 0.00 | 0.05 | 0.00 | 51 | 1012.2 |
| 20260903230105 | 94 | 118 | 0.0 | 0.0 | 0.00 | 0.05 | 0.00 | 51 | 1008.9 |
| 20260903225821 | 94 | 137 | 0.0 | 0.0 | 0.00 | 0.05 | 0.00 | 51 | 1012.1 |
| 20260903225554 | 94 | 133 | 0.0 | 0.0 | 0.00 | 0.05 | 0.00 | 50 | 1008.9 |
| 20260903225319 | 95 | 172 | 0.0 | 0.0 | 0.00 | 0.05 | 0.00 | 50 | 1012.0 |
| 20260903225048 | 94 | 108 | 0.0 | 0.0 | 0.00 | 0.05 | 0.00 | 50 | 1008.8 |
| 20260903224837 | 95 | 159 | 0.0 | 0.0 | 0.00 | 0.05 | 0.00 | 49 | 1012.0 |
| 20260903224520 | 95 | 121 | 0.0 | 0.0 | 0.00 | 0.05 | 0.00 | 49 | 1008.8 |
| 20260903224340 | 96 | 121 | 0.0 | 0.0 | 0.00 | 0.05 | 0.00 | 49 | 1012.0 |
| 20260903224040 | 95 | 123 | 0.0 | 0.0 | 0.00 | 0.05 | 0.00 | 48 | 1008.7 |
| 20260903223831 | 96 | 96 | 0.0 | 0.0 | 0.00 | 0.05 | 0.00 | 48 | 1011.9 |
| 20260903223531 | 95 | 120 | 0.0 | 0.0 | 0.00 | 0.05 | 0.00 | 48 | 1008.7 |
| 20260903223329 | 96 | 139 | 0.0 | 0.0 | 0.00 | 0.05 | 0.00 | 48 | 1011.8 |
| 20260903223020 | 95 | 116 | 0.0 | 0.0 | 0.00 | 0.05 | 0.00 | 48 | 1008.7 |
| 20260903222827 | 96 | 129 | 0.0 | 0.0 | 0.00 | 0.05 | 0.00 | 48 | 1011.9 |
| 20260903222507 | 95 | 129 | 0.0 | 0.0 | 0.00 | 0.05 | 0.00 | 48 | 1008.7 |
| 20260903222325 | 96 | 116 | 0.0 | 0.0 | 0.00 | 0.05 | 0.00 | 47 | 1011.8 |
| 20260903222103 | 96 | 139 | 0.0 | 0.0 | 0.00 | 0.05 | 0.00 | 47 | 1008.7 |
| 20260903221843 | 97 | 73 | 0.0 | 0.0 | 0.00 | 0.05 | 0.00 | 47 | 1011.9 |
| 20260903221532 | 96 | 156 | 0.0 | 0.0 | 0.00 | 0.05 | 0.00 | 47 | 1008.7 |
| 20260903221320 | 97 | 151 | 0.0 | 0.0 | 0.00 | 0.05 | 0.00 | 47 | 1012.0 |
| 20260903221021 | 96 | 102 | 0.0 | 0.0 | 0.00 | 0.05 | 0.00 | 47 | 1008.7 |
| 20260903220818 | 97 | 103 | 0.0 | 0.0 | 0.00 | 0.05 | 0.00 | 47 | 1011.9 |
| 20260903220503 | 96 | 129 | 0.0 | 0.0 | 0.00 | 0.05 | 0.00 | 47 | 1008.7 |
| 20260903220316 | 97 | 131 | 0.0 | 0.0 | 0.00 | 0.05 | 0.00 | 47 | 1012.0 |
| 20260903220056 | 96 | 152 | 0.0 | 0.0 | 0.00 | 0.05 | 0.00 | 47 | 1008.7 |
| 20260903220001 | 97 | 132 | 0.0 | 0.0 | 0.00 | 0.05 | 0.00 | 47 | 1012.0 |
| 20260903215506 | 96 | 119 | 0.0 | 0.0 | 0.00 | 0.05 | 0.00 | 47 | 1008.8 |
| 20260903215323 | 97 | 115 | 0.0 | 0.0 | 0.00 | 0.05 | 0.00 | 46 | 1011.9 |
| 20260903215100 | 96 | 147 | 0.0 | 0.0 | 0.00 | 0.05 | 0.00 | 46 | 1008.9 |
| 20260903214822 | 97 | 177 | 0.0 | 0.0 | 0.00 | 0.05 | 0.00 | 47 | 1012.0 |
| 20260903214605 | 96 | 109 | 0.0 | 0.0 | 0.00 | 0.05 | 0.00 | 47 | 1008.7 |
| 20260903214340 | 96 | 156 | 0.0 | 0.0 | 0.00 | 0.05 | 0.00 | 47 | 1012.0 |
| 20260903214036 | 96 | 136 | 0.0 | 0.0 | 0.00 | 0.05 | 0.00 | 47 | 1008.9 |
| 20260903213831 | 96 | 89 | 0.0 | 0.0 | 0.00 | 0.05 | 0.00 | 47 | 1012.1 |
| 20260903213520 | 96 | 116 | 0.0 | 0.0 | 0.00 | 0.05 | 0.00 | 47 | 1009.0 |
| 20260903213349 | 96 | 154 | 0.0 | 0.0 | 0.00 | 0.05 | 0.00 | 47 | 1012.2 |
| 20260903213052 | 96 | 168 | 0.0 | 0.0 | 0.00 | 0.05 | 0.00 | 47 | 1009.0 |
| 20260903212846 | 97 | 164 | 0.0 | 0.0 | 0.00 | 0.05 | 0.00 | 47 | 1012.2 |
| 20260903212529 | 96 | 131 | 0.0 | 0.0 | 0.00 | 0.05 | 0.00 | 48 | 1009.1 |
| 20260903212323 | 97 | 137 | 0.0 | 0.0 | 0.00 | 0.05 | 0.00 | 47 | 1012.3 |
| 20260903212007 | 96 | 79 | 0.0 | 0.0 | 0.00 | 0.05 | 0.00 | 48 | 1009.1 |
| 20260903211821 | 96 | 116 | 0.0 | 0.0 | 0.00 | 0.05 | 0.00 | 48 | 1012.4 |
| 20260903211609 | 96 | 105 | 0.0 | 0.0 | 0.00 | 0.05 | 0.00 | 48 | 1009.2 |
| 20260903211319 | 96 | 130 | 0.0 | 0.0 | 0.00 | 0.05 | 0.00 | 48 | 1012.4 |
| 20260903211051 | 96 | 127 | 0.0 | 0.0 | 0.00 | 0.05 | 0.00 | 49 | 1009.2 |
| 20260903210817 | 96 | 144 | 0.0 | 0.0 | 0.00 | 0.05 | 0.00 | 49 | 1012.5 |
| 20260903210544 | 95 | 78 | 0.0 | 0.0 | 0.00 | 0.05 | 0.00 | 49 | 1009.3 |
| 20260903210315 | 96 | 168 | 0.0 | 0.0 | 0.00 | 0.05 | 0.00 | 50 | 1012.6 |
| 20260903210043 | 95 | 125 | 0.0 | 0.0 | 0.00 | 0.05 | 0.00 | 49 | 1009.4 |
| 20260903205833 | 96 | 136 | 0.0 | 0.0 | 0.00 | 0.05 | 0.00 | 49 | 1012.6 |
| 20260903205529 | 95 | 92 | 0.0 | 0.0 | 0.00 | 0.05 | 0.00 | 48 | 1009.3 |
| 20260903205331 | 96 | 146 | 0.0 | 0.0 | 0.00 | 0.05 | 0.00 | 48 | 1012.6 |
| 20260903205009 | 95 | 135 | 0.0 | 0.0 | 0.00 | 0.05 | 0.00 | 49 | 1009.4 |
| 20260903204850 | 95 | 78 | 0.0 | 0.0 | 0.00 | 0.05 | 0.00 | 49 | 1012.7 |
| 20260903204542 | 95 | 139 | 0.0 | 0.0 | 0.00 | 0.05 | 0.00 | 49 | 1009.5 |
| 20260903204326 | 96 | 158 | 0.0 | 0.0 | 0.00 | 0.05 | 0.00 | 49 | 1012.8 |
| 20260903204031 | 95 | 145 | 0.0 | 0.0 | 0.00 | 0.05 | 0.00 | 49 | 1009.7 |
| 20260903203824 | 95 | 162 | 0.0 | 0.0 | 0.00 | 0.05 | 0.00 | 48 | 1012.8 |
| 20260903203524 | 95 | 163 | 0.0 | 0.0 | 0.00 | 0.05 | 0.00 | 49 | 1009.7 |
| 20260903203342 | 95 | 73 | 0.0 | 0.0 | 0.00 | 0.05 | 0.00 | 49 | 1012.8 |
| 20260903203047 | 95 | 153 | 0.0 | 0.0 | 0.00 | 0.05 | 0.00 | 49 | 1009.7 |
| 20260903202819 | 96 | 150 | 0.0 | 0.0 | 0.00 | 0.05 | 0.00 | 49 | 1013.0 |
| 20260903202547 | 95 | 89 | 0.0 | 0.0 | 0.00 | 0.05 | 0.00 | 49 | 1009.8 |
| 20260903202352 | 96 | 117 | 0.0 | 0.0 | 0.00 | 0.05 | 0.00 | 50 | 1013.0 |
| 20260903202011 | 95 | 135 | 0.0 | 0.0 | 0.00 | 0.05 | 0.00 | 49 | 1009.9 |
| 20260903201829 | 96 | 89 | 0.0 | 0.0 | 0.00 | 0.05 | 0.00 | 50 | 1013.1 |
| 20260903201508 | 95 | 135 | 0.0 | 0.0 | 0.00 | 0.05 | 0.00 | 50 | 1009.9 |
| 20260903201325 | 95 | 121 | 0.0 | 0.0 | 0.00 | 0.05 | 0.00 | 50 | 1013.1 |
| 20260903201106 | 95 | 164 | 0.0 | 0.0 | 0.00 | 0.05 | 0.00 | 50 | 1009.9 |
| 20260903200823 | 95 | 141 | 0.0 | 0.0 | 0.00 | 0.05 | 0.00 | 50 | 1013.2 |
| 20260903200554 | 94 | 129 | 0.0 | 0.0 | 0.00 | 0.05 | 0.00 | 50 | 1010.1 |
| 20260903200321 | 95 | 143 | 0.0 | 0.0 | 0.00 | 0.05 | 0.00 | 50 | 1013.3 |
| 20260903200057 | 94 | 125 | 0.0 | 0.0 | 0.00 | 0.05 | 0.00 | 50 | 1010.2 |